DW1341 Weather Reports


time (UTC)temp
C
wind
direction
speed
KPH
gust
KPH
rain 1hr
cm
rain 24hr
cm
rain mn
cm
humidity
%
barometer
mb
20260503220003 27 0 0.0 0.0 0.00 0.00 0.00 47 1009.7
20260503215003 27 0 0.0 0.0 0.00 0.00 0.00 47 1009.8
20260503214003 27 0 0.0 0.0 0.00 0.00 0.00 44 1009.8
20260503213003 27 0 0.0 0.0 0.00 0.00 0.00 41 1010.0
20260503212003 27 0 0.0 0.0 0.00 0.00 0.00 41 1010.0
20260503211003 26 0 0.0 0.0 0.00 0.00 0.00 44 1010.2
20260503210003 26 0 0.0 0.0 0.00 0.00 0.00 44 1010.3
20260503205003 26 0 0.0 0.0 0.00 0.00 0.00 44 1010.4
20260503204024 26 0 0.0 0.0 0.00 0.00 0.00 45 1010.5
20260503203003 26 0 0.0 0.0 0.00 0.00 0.00 47 1010.5
20260503202024 26 0 0.0 0.0 0.00 0.00 0.00 50 1010.6
20260503201024 26 0 0.0 0.0 0.00 0.00 0.00 49 1010.7
20260503200003 26 0 0.0 0.0 0.00 0.00 0.00 47 1010.9
20260503195003 26 0 0.0 0.0 0.00 0.00 0.00 47 1011.1
20260503194003 25 0 0.0 0.0 0.00 0.00 0.00 46 1011.2
20260503193003 25 0 0.0 0.0 0.00 0.00 0.00 43 1011.2
20260503192003 25 0 0.0 0.0 0.00 0.00 0.00 45 1011.3
20260503191003 25 0 0.0 0.0 0.00 0.00 0.00 44 1011.4
20260503190003 25 0 0.0 0.0 0.00 0.00 0.00 45 1011.4
20260503185024 25 0 0.0 0.0 0.00 0.00 0.00 45 1011.5
20260503184003 25 0 0.0 0.0 0.00 0.00 0.00 45 1011.6
20260503183003 25 0 0.0 0.0 0.00 0.00 0.00 48 1011.6
20260503182024 24 0 0.0 0.0 0.00 0.00 0.00 47 1011.7
20260503181003 23 0 0.0 0.0 0.00 0.00 0.00 48 1011.8
20260503180003 23 0 0.0 0.0 0.00 0.00 0.00 47 1011.8
20260503175003 23 0 0.0 0.0 0.00 0.00 0.00 49 1011.8
20260503174003 23 0 0.0 0.0 0.00 0.00 0.00 48 1011.9
20260503173003 22 0 0.0 0.0 0.00 0.00 0.00 52 1012.2
20260503172003 22 0 0.0 0.0 0.00 0.00 0.00 49 1012.3
20260503171003 22 0 0.0 0.0 0.00 0.00 0.00 51 1012.4